WetterOnline ( https://www.wetteronline.de )

Wetter aktuell Feldberg

Aktuelles Wetter: Freiburg/Flugplatz (236m)

6-stündlich | Neueste Meldungen
Ortszeit Temperatur Wetter
Di, 26.10. 20:00 9.8° C wolkig
Di, 26.10. 14:00 15.2° C bedeckt
Di, 26.10. 8:00 9.4° C bewölkt
Di, 26.10. 2:00 13.3° C leichter Regen
Mo, 25.10. 20:00 13.0° C leicht bewölkt
Mo, 25.10. 14:00 17.4° C wolkenlos
Mo, 25.10. 8:00 2.2° C bedeckt
Mo, 25.10. 2:00 2.7° C bewölkt
Ortszeit Temperatur Wetter
Mi, 27.10. 1:30 6.2° C wolkig
Mi, 27.10. 1:10 5.8° C wolkig
Mi, 27.10. 1:00 5.5° C wolkig
Mi, 27.10. 0:50 5.5° C wolkig
Mi, 27.10. 0:40 6.0° C Nebel
Mi, 27.10. 0:30 6.6° C wolkig
Mi, 27.10. 0:00 6.8° C wolkig
Di, 26.10. 23:30 8.0° C wolkig
Di, 26.10. 23:00 9.2° C bewölkt
Di, 26.10. 22:30 9.3° C bewölkt
Ortszeit Relative Feuchte Sichtweite
Di, 26.10. 20:00 89% 35 km
Di, 26.10. 14:00 63% 60 km
Di, 26.10. 8:00 93% 20 km
Di, 26.10. 2:00 73% 30 km
Mo, 25.10. 20:00 70% 45 km
Mo, 25.10. 14:00 53% 65 km
Mo, 25.10. 8:00 94% 18 km
Mo, 25.10. 2:00 94% 17 km
Ortszeit Relative Feuchte Sichtweite
Mi, 27.10. 1:30 95% 21 km
Mi, 27.10. 1:10 95% -
Mi, 27.10. 1:00 96% 13 km
Mi, 27.10. 0:50 96% -
Mi, 27.10. 0:40 97% -
Mi, 27.10. 0:30 97% 13 km
Mi, 27.10. 0:00 95% 14 km
Di, 26.10. 23:30 91% 28 km
Di, 26.10. 23:00 90% 35 km
Di, 26.10. 22:30 93% 35 km
Ortszeit Niederschlagsmenge Niederschlagsart
Di, 26.10. 20:00 0.1 l/m2 in 12 Std. Regen
Di, 26.10. 14:00 0.1 l/m2 in 6 Std. Regen
Di, 26.10. 8:00 0.1 l/m2 in 12 Std. Regen
Di, 26.10. 2:00 0.1 l/m2 in 6 Std. Regen
Mo, 25.10. 20:00 0.0 l/m2 in 12 Std. -
Mo, 25.10. 14:00 0.0 l/m2 in 6 Std. -
Mo, 25.10. 8:00 0.0 l/m2 in 12 Std. -
Mo, 25.10. 2:00 0.0 l/m2 in 6 Std. -
Ortszeit Niederschlagsmenge Niederschlagsart
Mi, 27.10. 1:30 0.0 l/m2 in 1 Std. -
Mi, 27.10. 1:10 keine Meldung -
Mi, 27.10. 1:00 0.0 l/m2 in 1 Std. -
Mi, 27.10. 0:50 keine Meldung -
Mi, 27.10. 0:40 keine Meldung -
Mi, 27.10. 0:30 0.0 l/m2 in 1 Std. -
Mi, 27.10. 0:00 0.0 l/m2 in 1 Std. -
Di, 26.10. 23:30 0.0 l/m2 in 1 Std. -
Di, 26.10. 23:00 0.0 l/m2 in 1 Std. -
Di, 26.10. 22:30 0.0 l/m2 in 1 Std. -
Ortszeit Stärke Spitze Richtung
km/h Bft. km/h Grad Sektor
Di, 26.10. 20:00 4 1 22 30° NO
Di, 26.10. 14:00 13 3 24 240° SW
Di, 26.10. 8:00 9 2 19 330° NW
Di, 26.10. 2:00 9 2 22 240° SW
Mo, 25.10. 20:00 13 3 20 180° S
Mo, 25.10. 14:00 9 2 19 220° SW
Mo, 25.10. 8:00 4 1 7 290° W
Mo, 25.10. 2:00 0 0 4 - -
Ortszeit Stärke Spitze Richtung
km/h Bft. km/h Grad Sektor
Mi, 27.10. 1:30 2 1 4 200° S
Mi, 27.10. 1:10 4 1 - 260° W
Mi, 27.10. 1:00 0 0 7 - -
Mi, 27.10. 0:50 0 0 - 340° N
Mi, 27.10. 0:40 2 1 - 30° NO
Mi, 27.10. 0:30 7 2 7 330° NW
Mi, 27.10. 0:00 0 0 7 - -
Di, 26.10. 23:30 4 1 7 210° SW
Di, 26.10. 23:00 2 1 7 230° SW
Di, 26.10. 22:30 4 1 7 20° N
Ortszeit Untergrenze Bedeckung Gattung
total tief tief mittel hoch
Di, 26.10. 20:00 1500 m 8/8 2/8 - - -
Di, 26.10. 14:00 2100 m 8/8 8/8 - - -
Di, 26.10. 8:00 1500 m 7/8 7/8 - - -
Di, 26.10. 2:00 1320 m 8/8 6/8 - - -
Mo, 25.10. 20:00 1800 m 4/8 4/8 - - -
Mo, 25.10. 14:00 - 0/8 0/8 - - -
Mo, 25.10. 8:00 4500 m 8/8 8/8 - - -
Mo, 25.10. 2:00 6900 m 8/8 5/8 - - -
Ortszeit Bedeckungsgrad in Achtel und Wolkenuntergrenze
Mi, 27.10. 1:30 2(8400m) 8(10500m)
Mi, 27.10. 1:10 3(8700m) 4(9000m) 8(10500m)
Mi, 27.10. 1:00 4(9000m) 6(9000m) 8(10500m)
Mi, 27.10. 0:50 4(9000m) 6(9000m) 8(10500m)
Mi, 27.10. 0:40 4(9000m) 8(10500m)
Mi, 27.10. 0:30 8(10500m)
Mi, 27.10. 0:00 8(9000m)
Di, 26.10. 23:30 8(9000m)
Di, 26.10. 23:00 7(1170m) 7(9000m)
Di, 26.10. 22:30 7(960m) 8(10500m)
Ortszeit Luftdruck NN (hPa) Tendenz (hPa in 3 Std.)
Di, 26.10. 20:00 1027 + 1,6
Di, 26.10. 14:00 1024 - 0,3
Di, 26.10. 8:00 1024 + 0,7
Di, 26.10. 2:00 1022 + 0,5
Mo, 25.10. 20:00 1021 + 0,8
Mo, 25.10. 14:00 1021 - 1,4
Mo, 25.10. 8:00 1023 - 0,6
Mo, 25.10. 2:00 1024 - 0,3
Ortszeit Luftdruck NN (hPa) Tendenz (hPa in 3 Std.)
Mi, 27.10. 1:30 1028 + 0,1
Mi, 27.10. 1:10 1028 keine Meldung
Mi, 27.10. 1:00 1028 + 0,3
Mi, 27.10. 0:50 1028 keine Meldung
Mi, 27.10. 0:40 1028 keine Meldung
Mi, 27.10. 0:30 1028 + 0,5
Mi, 27.10. 0:00 1028 + 0,6
Di, 26.10. 23:30 1028 + 0,6
Di, 26.10. 23:00 1027 + 0,6
Di, 26.10. 22:30 1027 + 0,9
Ortszeit Schneehöhe (cm)
Di, 26.10. 20:00 0
Di, 26.10. 14:00 0
Di, 26.10. 8:00 0
Di, 26.10. 2:00 0
Mo, 25.10. 20:00 0
Mo, 25.10. 14:00 0
Mo, 25.10. 8:00 0
Mo, 25.10. 2:00 0
Ortszeit Schneehöhe (cm)
Mi, 27.10. 1:30 0
Mi, 27.10. 1:10 0
Mi, 27.10. 1:00 0
Mi, 27.10. 0:50 0
Mi, 27.10. 0:40 0
Mi, 27.10. 0:30 0
Mi, 27.10. 0:00 0
Di, 26.10. 23:30 0
Di, 26.10. 23:00 0
Di, 26.10. 22:30 0
Link zu dieser Seite / Seite empfehlen

Das Wetter in ...